[[{"header":{"parameterUnit":"m.s-1","parameterCategory":1,"la1":30.2991,"la2":30.254,"lo1":-89.0895,"lo2":-89.0444,"dy":0.0017,"dx":0.0017,"nx":28,"ny":28,"refTime":"2024-08-08T09:00:00:Z","depth":0,"parameterNumber":2,"parameterNumberName":"U-component_of_WINDS"},"data":[0,0,0,0,0,0,0,0,0,0,0,0,0,0,0,0,0,0,0,0,0,0,0,0,0,0,0,0,0,0,0,0,0,0,0,0,0,0,0,0,0,0,0,0,0,0,0,0,0,0,0,0,0,0,0,0,0,0,0.2367,0.2368,0,0.2429,0.2429,0.243,0.2488,0.2489,0.249,0.2491,0.2556,0.2557,0.2558,0,0,0,0,0,0,0,0,0,0,0,0,0,0.2301,0.2302,0.2367,0.2368,0.2369,0.2429,0.2429,0.243,0.2488,0.2489,0.249,0.2491,0.2556,0.2557,0.2559,0,0,0,0,0,0,0,0,0,0,0,0,0,0.2343,0.2303,0.2367,0.2405,0.2409,0.2428,0.2429,0.2431,0.2488,0.2489,0.249,0.2491,0.2556,0.2557,0.2559,0.2547,0,0,0.2564,0.2564,0,0,0,0,0,0,0,0,0.2341,0.2346,0.2398,0.2402,0.2407,0.2452,0.2431,0.247,0.2488,0.2458,0.2491,0.2492,0.2521,0.2525,0.2535,0.255,0.2553,0.2564,0.2565,0.2565,0.2566,0,0,0,0,0,0,0,0.2338,0.2343,0.2392,0.2399,0.2404,0.2419,0.2426,0.2438,0.2483,0.2461,0.2465,0.2471,0.2523,0.2533,0.2537,0.2554,0.2564,0.2565,0.2566,0.2567,0.2562,0.2561,0,0,0,0,0,0,0.2329,0.234,0.239,0.2393,0.2376,0.2419,0.2427,0.2436,0.2483,0.2491,0.247,0.2474,0.253,0.2535,0.2539,0.2528,0.2565,0.2567,0.2568,0.2563,0.2562,0.2561,0,0,0,0,0,0,0.2327,0.2333,0.2387,0.2368,0.2376,0.2419,0.2429,0.2437,0.2447,0.249,0.2498,0.2472,0.2531,0.2537,0.2544,0.2531,0.2568,0.2569,0.2564,0.2563,0.2561,0.2505,0,0,0,0,0,0,0.2325,0.2332,0.2327,0.2367,0.2377,0.239,0.2428,0.2437,0.2449,0.2454,0.2494,0.2501,0.2532,0.2541,0.2546,0.2534,0.257,0.2566,0.2564,0.2562,0.2508,0.2502,0.2496,0,0,0,0,0,0.2322,0.231,0.2327,0.2332,0.2372,0.2389,0.2395,0.243,0.2448,0.2444,0.2471,0.25,0.2532,0.2542,0.2547,0.2535,0.2567,0.2564,0.2562,0.2511,0.2503,0.2496,0,0,0,0,0,0,0.2268,0.2316,0.2335,0.2335,0.2357,0.2399,0.2395,0.242,0.2439,0.2443,0.2487,0.2495,0.2497,0.2517,0.2528,0.2526,0.2553,0.2552,0.2513,0.2505,0.2499,0.2494,0.2572,0,0,0,0,0,0.2255,0.2265,0.2306,0.2302,0.2312,0.2351,0.236,0.2385,0.2411,0.2421,0.245,0.2474,0.2489,0.2499,0.2516,0.2512,0.2521,0.2506,0.25,0.2495,0.2493,0.2492,0.2486,0.2553,0.2553,0.2553,0,0,0.223,0.2258,0.2261,0.2292,0.2312,0.2321,0.2359,0.2368,0.2375,0.2423,0.2431,0.2452,0.2483,0.2484,0.2486,0.2501,0.2477,0.2492,0.2487,0.2488,0.2489,0.2482,0.2477,0.2551,0.2551,0.2551,0,0,0.2189,0.2211,0.2209,0.2229,0.2259,0.2285,0.2284,0.2322,0.2338,0.2347,0.2382,0.2392,0.2418,0.2438,0.2451,0.2417,0.2444,0.2421,0.2389,0.2387,0.2382,0.2378,0.2365,0.2359,0.2419,0.2419,0.2419,0,0.2155,0.2169,0.2206,0.2211,0.2223,0.2266,0.2265,0.2282,0.2317,0.2324,0.234,0.2373,0.2396,0.2403,0.2394,0.2404,0.2405,0.2417,0.238,0.2376,0.2372,0.236,0.2355,0.2416,0.2416,0.2417,0.2417,0,0.2124,0.2134,0.2129,0.2159,0.2171,0.2174,0.2211,0.2219,0.2243,0.2267,0.2275,0.2305,0.2328,0.2331,0.2355,0.2341,0.2349,0.2371,0.2399,0.2362,0.2351,0.2347,0.2412,0.2413,0.2414,0.2415,0,0,0.205,0.2101,0.2098,0.2112,0.2148,0.2157,0.2161,0.2182,0.2188,0.221,0.2214,0.2235,0.2256,0.2271,0.2298,0.2296,0.2266,0.2319,0.2321,0.2308,0.2251,0.2233,0.2227,0.2284,0.2283,0.2283,0.2248,0,0.2015,0.2024,0.2056,0.2056,0.2064,0.2105,0.2109,0.2131,0.2154,0.2166,0.2192,0.2205,0.2232,0.2241,0.2242,0.2269,0.2255,0.2273,0.2289,0.2289,0.2279,0.2222,0.2203,0.2169,0.2244,0.2244,0.2243,0,0.1974,0.1992,0.1992,0.2027,0.2032,0.2034,0.2056,0.2066,0.2093,0.211,0.2126,0.2155,0.2162,0.2189,0.2199,0.221,0.2219,0.2233,0.2233,0.2235,0.2263,0.2222,0.2159,0.2153,0.2237,0.2238,0.2238,0,0.1919,0.1944,0.1946,0.1957,0.1998,0.1999,0.2016,0.2044,0.2054,0.2074,0.2081,0.2102,0.2113,0.2128,0.2162,0.2178,0.2168,0.2198,0.2182,0.2181,0.2178,0.2178,0.2115,0.2185,0.2185,0.2185,0.2185,0,0.1876,0.1874,0.1922,0.1924,0.1922,0.1961,0.1959,0.198,0.2004,0.2011,0.2048,0.2054,0.2098,0.2109,0.2136,0.214,0.2145,0.2159,0.2166,0.2155,0.2153,0.2161,0.2164,0.2184,0.2184,0.2184,0.2184,0,0.1814,0.1846,0.1852,0.189,0.1899,0.1896,0.1929,0.1933,0.1957,0.1965,0.197,0.2009,0.2024,0.2059,0.2084,0.2102,0.2098,0.2112,0.2089,0.2093,0.2075,0.2076,0.2015,0.2008,0.2083,0.2082,0.2082,0,0.1784,0.1783,0.182,0.1826,0.1842,0.1852,0.1863,0.19,0.191,0.194,0.1939,0.1956,0.1972,0.1994,0.2025,0.2044,0.2058,0.2035,0.2061,0.205,0.2056,0.2056,0.2055,0.2029,0.2028,0.2027,0.2026,0,0.1726,0.1742,0.1755,0.1773,0.1784,0.1801,0.182,0.1823,0.1866,0.1875,0.1889,0.1901,0.1926,0.1942,0.1966,0.1985,0.2012,0.2018,0.2015,0.2004,0.199,0.1996,0.2072,0.2019,0.202,0.202,0.2021,0.2021,0.1679,0.1679,0.1705,0.1718,0.1736,0.1752,0.1757,0.1782,0.1794,0.1816,0.1838,0.185,0.1877,0.1911,0.1928,0.1938,0.1953,0.1949,0.1948,0.1946,0.1941,0.1989,0.1943,0.1943,0.1943,0.1944,0.1944,0,0.1622,0.164,0.1652,0.1676,0.1687,0.1711,0.1733,0.174,0.175,0.1772,0.1786,0.1803,0.1819,0.1851,0.187,0.1872,0.1885,0.1876,0.1876,0.188,0.1927,0.1927,0.1865,0.1865,0.1865,0.1865,0.1865,0.1865,0.1594,0.1596,0.1614,0.1626,0.1645,0.1656,0.1666,0.1681,0.1699,0.1715,0.1728,0.1749,0.1775,0.1796,0.1812,0.1821,0.1826,0.1812,0.1825,0.1869,0.1876,0.1883,0.1884,0.1813,0.1813,0.1776,0.1776,0.1776]},{"header":{"parameterUnit":"m.s-1","parameterCategory":1,"la1":30.2991,"la2":30.254,"lo1":-89.0895,"lo2":-89.0444,"dy":0.0017,"dx":0.0017,"nx":28,"ny":28,"refTime":"2024-08-08T09:00:00:Z","depth":0,"parameterNumber":3,"parameterNumberName":"V-component_of_WINDS"},"data":[0,0,0,0,0,0,0,0,0,0,0,0,0,0,0,0,0,0,0,0,0,0,0,0,0,0,0,0,0,0,0,0,0,0,0,0,0,0,0,0,0,0,0,0,0,0,0,0,0,0,0,0,0,0,0,0,0,0,-4.9634,-4.9635,0,-4.9734,-4.9735,-4.9736,-4.967,-4.9667,-4.9664,-4.9662,-4.9761,-4.9766,-4.9771,0,0,0,0,0,0,0,0,0,0,0,0,0,-4.9383,-4.9388,-4.9634,-4.9635,-4.9637,-4.9734,-4.9735,-4.9737,-4.9671,-4.9667,-4.9664,-4.966,-4.9759,-4.9765,-4.9772,0,0,0,0,0,0,0,0,0,0,0,0,0,-4.9488,-4.939,-4.9634,-4.9616,-4.9615,-4.9734,-4.9735,-4.9737,-4.9672,-4.9667,-4.9663,-4.9658,-4.9757,-4.9765,-4.9773,-4.9914,0,0,-4.9798,-4.9801,0,0,0,0,0,0,0,0,-4.9483,-4.9498,-4.9617,-4.9617,-4.9617,-4.9685,-4.9683,-4.9796,-4.9673,-4.965,-4.9662,-4.9656,-4.9739,-4.9748,-4.9777,-4.9919,-4.9923,-4.9799,-4.9804,-4.9807,-4.9809,0,0,0,0,0,0,0,-4.9475,-4.9493,-4.9673,-4.9619,-4.9619,-4.9601,-4.9611,-4.9704,-4.9719,-4.9652,-4.9647,-4.966,-4.9738,-4.9769,-4.9779,-4.9924,-4.9798,-4.9806,-4.9811,-4.9814,-5.0186,-5.0191,0,0,0,0,0,0,-4.947,-4.9487,-4.967,-4.9676,-4.9537,-4.961,-4.9621,-4.9668,-4.9718,-4.9721,-4.9664,-4.9657,-4.9758,-4.9769,-4.9782,-4.995,-4.9807,-4.9815,-4.9819,-5.0181,-5.0187,-5.0193,0,0,0,0,0,0,-4.9465,-4.9487,-4.9666,-4.9581,-4.9602,-4.9619,-4.9672,-4.9672,-4.9703,-4.9727,-4.9729,-4.9693,-4.9754,-4.9771,-4.9882,-4.9953,-4.9818,-4.9826,-5.0175,-5.0183,-5.019,-5.0288,0,0,0,0,0,0,-4.9458,-4.9485,-4.954,-4.9583,-4.9607,-4.9766,-4.9676,-4.9677,-4.9718,-4.971,-4.9755,-4.9758,-4.9752,-4.987,-4.989,-4.9962,-4.9832,-5.0169,-5.0179,-5.0188,-5.0279,-5.0298,-5.0315,0,0,0,0,0,-4.9449,-4.9563,-4.9543,-4.9566,-4.9676,-4.977,-4.9784,-4.9776,-4.9724,-4.9778,-4.9793,-4.9757,-4.9942,-4.9882,-4.9904,-4.9979,-5.0165,-5.0176,-5.0187,-5.027,-5.0294,-5.0314,0,0,0,0,0,0,-4.9527,-4.9568,-4.9547,-4.9678,-4.9721,-4.9759,-4.9827,-4.9801,-4.9859,-4.9848,-4.9835,-4.9845,-4.9962,-4.9981,-4.9914,-5.0118,-5.0045,-5.0061,-5.0101,-5.0124,-5.0141,-5.0134,-4.9839,0,0,0,0,0,-4.956,-4.9634,-4.9665,-4.9778,-4.9801,-4.9811,-4.9851,-4.9841,-4.9885,-4.9902,-4.9925,-4.9968,-5.0036,-5.0081,-5.0145,-5.0281,-5.029,-5.0344,-5.0362,-5.0377,-5.039,-5.0463,-5.0488,-5.023,-5.023,-5.0229,0,0,-4.9627,-4.9659,-4.9706,-4.9794,-4.9826,-4.9902,-4.9826,-4.991,-4.9965,-4.9915,-5.0021,-5.004,-5.0087,-5.0211,-5.0267,-5.0231,-5.0464,-5.0391,-5.0402,-5.0408,-5.0478,-5.0502,-5.0524,-5.0237,-5.0236,-5.0235,0,0,-4.979,-4.9822,-4.9919,-4.9953,-5.0003,-5.0009,-5.0032,-5.0074,-5.0085,-5.0192,-5.0156,-5.0221,-5.0339,-5.0374,-5.0407,-5.0583,-5.0551,-5.0604,-5.0698,-5.0769,-5.079,-5.0808,-5.087,-5.0892,-5.0618,-5.0618,-5.0618,0,-4.9867,-4.9981,-4.9971,-5.0058,-5.0098,-5.0057,-5.0154,-5.0188,-5.0256,-5.0283,-5.0243,-5.0389,-5.0418,-5.055,-5.0593,-5.0621,-5.0647,-5.0598,-5.0788,-5.0806,-5.0822,-5.0881,-5.0905,-5.0624,-5.0624,-5.0623,-5.0622,0,-5.0073,-5.0153,-5.0225,-5.0294,-5.0341,-5.0433,-5.0436,-5.0486,-5.0472,-5.0482,-5.0591,-5.0624,-5.0694,-5.0725,-5.0711,-5.0855,-5.0831,-5.079,-5.0715,-5.0853,-5.0908,-5.0931,-5.0633,-5.0631,-5.0629,-5.0628,0,0,-5.0287,-5.0349,-5.0376,-5.0406,-5.0459,-5.052,-5.0609,-5.0679,-5.0721,-5.0769,-5.0843,-5.0944,-5.0906,-5.0944,-5.0934,-5.0997,-5.1134,-5.0948,-5.0948,-5.098,-5.1293,-5.1324,-5.135,-5.1114,-5.1118,-5.1121,-5.1289,0,-5.0451,-5.0609,-5.0603,-5.0749,-5.0822,-5.0785,-5.0863,-5.0903,-5.0915,-5.0978,-5.099,-5.1061,-5.1006,-5.1029,-5.1089,-5.1105,-5.1196,-5.1092,-5.1181,-5.1184,-5.117,-5.1379,-5.1412,-5.1568,-5.1311,-5.1314,-5.1317,0,-5.0664,-5.0721,-5.0875,-5.0917,-5.0948,-5.1018,-5.1081,-5.1142,-5.1187,-5.1191,-5.1234,-5.1214,-5.1304,-5.1229,-5.1352,-5.1281,-5.1317,-5.133,-5.1336,-5.1343,-5.1258,-5.1391,-5.1618,-5.1642,-5.1351,-5.1348,-5.1346,0,-5.0803,-5.0918,-5.1025,-5.1053,-5.1105,-5.1155,-5.1179,-5.1219,-5.1261,-5.1316,-5.1343,-5.1407,-5.1442,-5.1492,-5.149,-5.1436,-5.1615,-5.1539,-5.162,-5.162,-5.1658,-5.1656,-5.1894,-5.1683,-5.1683,-5.1682,-5.1682,0,-5.0987,-5.1083,-5.1089,-5.1155,-5.126,-5.1253,-5.1357,-5.1376,-5.1412,-5.148,-5.1451,-5.1515,-5.1509,-5.1574,-5.1573,-5.1675,-5.1691,-5.1696,-5.1694,-5.1698,-5.1698,-5.1721,-5.171,-5.1689,-5.1687,-5.1686,-5.1685,0,-5.116,-5.1168,-5.1282,-5.1323,-5.1335,-5.1411,-5.1445,-5.1507,-5.1516,-5.1603,-5.1623,-5.1637,-5.1712,-5.1715,-5.1801,-5.18,-5.1924,-5.191,-5.1909,-5.1906,-5.1986,-5.1978,-5.2247,-5.2281,-5.2049,-5.2051,-5.2053,0,-5.1276,-5.1349,-5.1398,-5.1442,-5.1469,-5.154,-5.1583,-5.1579,-5.1624,-5.1681,-5.1736,-5.1808,-5.1866,-5.1986,-5.2004,-5.2069,-5.2057,-5.2146,-5.2066,-5.2068,-5.2057,-5.2053,-5.206,-5.2161,-5.2164,-5.2166,-5.2168,0,-5.1482,-5.1483,-5.1546,-5.1612,-5.1665,-5.1716,-5.1763,-5.1801,-5.1801,-5.1854,-5.1931,-5.1976,-5.2063,-5.2135,-5.2199,-5.2222,-5.2195,-5.2193,-5.2215,-5.2219,-5.2215,-5.2218,-5.1951,-5.2187,-5.2185,-5.2183,-5.2182,-5.2182,-5.163,-5.1693,-5.1737,-5.1809,-5.1844,-5.189,-5.195,-5.1968,-5.2032,-5.2103,-5.2097,-5.2181,-5.2224,-5.2307,-5.2335,-5.2401,-5.237,-5.2402,-5.241,-5.2418,-5.2426,-5.2206,-5.2412,-5.2412,-5.2411,-5.2411,-5.2411,0,-5.1833,-5.186,-5.1927,-5.1994,-5.2051,-5.2022,-5.2073,-5.2122,-5.2198,-5.224,-5.2298,-5.2386,-5.2455,-5.2479,-5.2546,-5.2594,-5.2583,-5.2612,-5.2608,-5.2613,-5.245,-5.2424,-5.2619,-5.2619,-5.2619,-5.2619,-5.2619,-5.2619,-5.1946,-5.2051,-5.2057,-5.2179,-5.2204,-5.2288,-5.232,-5.2361,-5.2395,-5.2495,-5.2553,-5.2568,-5.2603,-5.2673,-5.2735,-5.274,-5.2766,-5.2799,-5.2799,-5.2646,-5.2625,-5.2605,-5.258,-5.2805,-5.2805,-5.2957,-5.2958,-5.2959]}]]